Home   Weather   Mountain View   Past weeks

Flag for USA Past Weather in Mountain View, California, USA — Yesterday and Last 2 Weeks

Now
57 °F

Mostly cloudy.


Feels Like: 57 °F
Forecast: 57 / 66 °F
Wind: No wind

Location: Moffett Field

Current Time: Apr 26, 2017 at 6:59:14 am

Latest Report: Apr 26, 2017 at 5:56 am


Visibility: 10 mi

Pressure: 30.08 "Hg

Humidity: 83%

Dew Point: 52 °F

Location of Mountain ViewLocation

Past Weather in Mountain View — Graph

°F

Mountain View Temperature Yesterday

Maximum temperature yesterday: 66 °F (at 3:56 pm)
Minimum temperature yesterday: 52 °F (at 2:56 am)
Average temperature yesterday: 59 °F

High & Low Weather Summary for the Past Weeks

 TemperatureHumidityPressure
High76 °F (Apr 21, 3:56 pm)100% (Apr 13, 2:04 am)30.33 "Hg (Apr 13, 2:04 am)
Low44 °F (Apr 15, 6:56 am)22% (Apr 22, 10:56 am)29.92 "Hg (Apr 12, 7:56 pm)
Average58 °F70%30.09 "Hg
* Reported Apr 11 4:56 am — Apr 26 4:56 am, Mountain View, Weather by CustomWeather, © 2017

Note: Actual official high and low records may vary slightly from our data, if they occured in-between our weather recording intervals... More about our weather records

Advertising

Mountain View Weather History for the Previous 24 Hours

Scroll right to see more
 ConditionsComfort  
Time TempWeatherWind HumidityBarometerVisibility
4:56 am
Wed, Apr 26
57 °FOvercast.No wind81%30.07 "Hg10 mi
4:40 am56 °FMostly cloudy.3 mph84%30.06 "Hg10 mi
3:56 am57 °FPassing clouds.3 mph81%30.07 "Hg10 mi
3:05 am57 °FPassing clouds.No wind78%30.08 "Hg10 mi
1:56 am58 °FOvercast.3 mph78%30.11 "Hg10 mi
1:35 am58 °FMostly cloudy.3 mph78%30.11 "Hg10 mi
12:56 am57 °FOvercast.No wind81%30.12 "Hg10 mi
12:24 am57 °FMostly cloudy.No wind81%30.12 "Hg10 mi
11:56 pm
Tue, Apr 25
57 °FClear.No wind78%30.12 "Hg10 mi
10:56 pm58 °FClear.5 mph75%30.13 "Hg10 mi
9:56 pm57 °FClear.5 mph78%30.13 "Hg10 mi
8:56 pm58 °FPassing clouds.5 mph75%30.13 "Hg10 mi
7:56 pm61 °FOvercast.6 mph67%30.11 "Hg10 mi
6:56 pm62 °FScattered clouds.10 mph65%30.10 "Hg10 mi
5:56 pm63 °FSunny.12 mph63%30.11 "Hg10 mi
4:56 pm65 °FPartly sunny.12 mph59%30.10 "Hg10 mi
3:56 pm66 °FPartly sunny.17 mph61%30.09 "Hg10 mi
2:56 pm65 °FPassing clouds.18 mph61%30.10 "Hg10 mi
1:56 pm65 °FPassing clouds.16 mph59%30.11 "Hg10 mi
12:56 pm63 °FSunny.15 mph58%30.12 "Hg10 mi
11:56 am63 °FSunny.16 mph58%30.12 "Hg10 mi
10:56 am62 °FSunny.15 mph58%30.12 "Hg10 mi
9:56 am60 °FSunny.12 mph62%30.13 "Hg10 mi
8:56 am58 °FSunny.No wind60%30.09 "Hg10 mi
7:56 am55 °FSunny.3 mph69%30.10 "Hg10 mi
6:56 am53 °FScattered clouds.3 mph74%30.08 "Hg10 mi
Weather by CustomWeather, © 2017

See weather overviewHow to use our weather pages